Fairbanks Eiels, AK

4:11 AM AKDT on September 21, 2017 (GMT -0800)
Eielson Air Force Base

Weather History for PAEI - July, 2013

Change the Weather History Date:

Tuesday, July 16, 2013

  Actual Average Record
Temperature  
Mean Temperature 62 °F -  
Max Temperature 69 °F 72 °F 89 °F (1951)
Min Temperature 55 °F 52 °F 42 °F (2003)
Degree Days  
Heating Degree Days 4    
Growing Degree Days 12 (Base 50)    
Moisture  
Dew Point 52 °F    
Average Humidity 68    
Maximum Humidity 84    
Minimum Humidity 58    
Precipitation  
Precipitation 0.00 in - - ()
Sea Level Pressure  
Sea Level Pressure 30.14 in    
Wind  
Wind Speed 5 mph (West)    
Max Wind Speed 10 mph    
Max Gust Speed 18 mph    
Visibility 10 miles    
Events      
Averages and records for this station are not official NWS values.
T = Trace of Precipitation, MM = Missing Value Source: NWS Daily Summary

Daily Weather History Graph

Daily Weather History Graph

Search for Another Location

Airport or City:

Trip Planner

Search our weather history database for the weather conditions in past years. The results will help you decide how hot, cold, wet, or windy it might be!

Date:

Astronomy

Jul. 16, 2013 Rise Set
Actual Time 3:57 AM AKDT 11:48 PM AKDT
Civil Twilight 2:26 AM AKDT 1:22 AM AKDT
Nautical Twilight Sun does not set Sun does not set
Astronomical Twilight Sun does not set Sun does not set
Moon 4:31 PM AKDT (7/16) 12:02 AM AKDT (7/16)
Length of Visible Light 22h 55m
Length of Day
19h 51m
First Quarter, 58% of the Moon is Illuminated
Jul 16
First Quarter
Jul 22
Full
Jul 29
Last Quarter
Aug 6
New
Aug 14
First Quarter

Hourly Weather History & Observations

Time (AKDT) Temp. Dew Point Humidity Pressure Visibility Wind Dir Wind Speed Gust Speed Precip Events Conditions
12:55 AM 65.5 °F 52.3 °F 62% 30.11 in 10.0 mi Variable 4.6 mph - N/A   Overcast
1:55 AM 64.6 °F 52.3 °F 64% 30.12 in 10.0 mi West 3.5 mph - N/A   Mostly Cloudy
2:55 AM 59.9 °F 52.2 °F 76% 30.12 in 10.0 mi Calm Calm - N/A   Overcast
3:55 AM 58.3 °F 52.5 °F 81% 30.13 in 10.0 mi Calm Calm - N/A   Overcast
4:55 AM 55.6 °F 50.7 °F 84% 30.13 in 10.0 mi Calm Calm - N/A   Overcast
5:55 AM 58.6 °F 51.3 °F 76% 30.14 in 10.0 mi WSW 6.9 mph - N/A   Mostly Cloudy
6:55 AM 60.1 °F 51.1 °F 72% 30.15 in 10.0 mi Variable 4.6 mph - N/A   Overcast
7:55 AM 60.8 °F 51.8 °F 72% 30.17 in 10.0 mi Variable 5.8 mph - N/A   Overcast
8:55 AM 61.2 °F 52.2 °F 72% 30.16 in 10.0 mi Variable 6.9 mph - N/A   Overcast
10:55 AM 65.5 °F 53.2 °F 65% 30.17 in 10.0 mi WNW 10.4 mph - N/A   Overcast
11:17 AM 66.2 °F 51.8 °F 60% 30.16 in 10.0 mi West 6.9 mph - N/A   Mostly Cloudy
11:55 AM 66.4 °F 53.8 °F 64% 30.17 in 10.0 mi West 6.9 mph - N/A   Mostly Cloudy
12:55 PM 64.8 °F 53.6 °F 67% 30.17 in 10.0 mi WNW 10.4 mph 17.3 mph N/A   Overcast
1:55 PM 64.4 °F 52.9 °F 66% 30.16 in 10.0 mi Variable 4.6 mph - N/A   Overcast
2:55 PM 67.1 °F 53.1 °F 61% 30.15 in 10.0 mi West 9.2 mph - N/A   Mostly Cloudy
3:55 PM 68.7 °F 53.2 °F 58% 30.14 in 10.0 mi West 9.2 mph 18.4 mph N/A   Mostly Cloudy
4:55 PM 67.1 °F 52.7 °F 60% 30.14 in 10.0 mi Variable 6.9 mph - N/A   Mostly Cloudy
5:55 PM 66.0 °F 51.8 °F 60% 30.13 in 10.0 mi West 10.4 mph - N/A   Overcast
6:55 PM 65.7 °F 52.5 °F 62% 30.12 in 10.0 mi WSW 9.2 mph - N/A   Overcast
7:55 PM 64.2 °F 52.3 °F 65% 30.12 in 10.0 mi Variable 4.6 mph - N/A   Overcast
8:55 PM 64.0 °F 52.7 °F 67% 30.12 in 10.0 mi Calm Calm - N/A   Overcast
9:55 PM 63.3 °F 52.7 °F 68% 30.12 in 10.0 mi Variable 3.5 mph - N/A   Overcast
10:55 PM 62.1 °F 52.9 °F 72% 30.11 in 10.0 mi Calm Calm - N/A   Overcast
11:55 PM 61.3 °F 52.9 °F 74% 30.11 in 10.0 mi Calm Calm - N/A   Overcast